Regional Weather Roundup
Issued by NWS San Angelo, TX

Home | Current Version | Previous Version | Text Only | Print | Product List | Glossary On
Versions: 1 2 3 4 5 6 7 8 9 10 11 12 13 14 15 16 17 18 19 20 21 22 23 24 25 26 27 28 29 30 31 32 33 34 35 36 37 38 39 40 41 42 43 44 45 46 47 48 49 50
000
ASUS44 KSJT 261010
RWRSJT
WEST CENTRAL TEXAS REGIONAL WEATHER ROUNDUP
NATIONAL WEATHER SERVICE SAN ANGELO TX
500 AM CDT SAT JUL 26 2014

NOTE: "FAIR" INDICATES FEW OR NO CLOUDS BELOW 12,000 FEET WITH NO
SIGNIFICANT WEATHER AND/OR OBSTRUCTIONS TO VISIBILITY.

TXZ049-054-064>066-071>073-076>078-098-099-113-114-127-128-139-140-
154-155-168>170-261100
...LOCATIONS ACROSS WEST CENTRAL TEXAS...

CITY           SKY/WX    TMP DP  RH WIND       PRES   REMARKS
SAN ANGELO     CLEAR     78  64  61 S9        30.00R
ABILENE        CLEAR     80  64  58 S10       29.98S
DYESS AFB      CLEAR     79  65  61 S13       29.97S
JUNCTION       CLEAR     76  68  76 S3        30.02S
SWEETWATER     CLEAR     79  62  55 S12       30.04R
BROWNWOOD      CLOUDY    75  66  73 SE7       30.00S
COLEMAN        SUNNY     74  64  69 S5        30.00S
SONORA         CLEAR     77  68  73 S5        30.07S
OZONA          FAIR      75  63  64 S9        30.05S
BRADY          CLEAR     73  66  78 S6        30.01S
$$

TEXAS PANHANDLE/OKLAHOMA PANHANDLE

CITY           SKY/WX    TMP DP  RH WIND       PRES   REMARKS
AMARILLO       CLEAR     75  53  46 SW16      30.02S
BORGER         CLEAR     78  50  37 SW8       30.00R
CANADIAN       CLEAR     75  60  59 SW5       29.95R
DALHART        PTCLDY    68  50  52 SW6       30.04F
DUMAS          SUNNY     72  49  44 SW9       30.02S
GUYMON         NOT AVBL
HEREFORD       SUNNY     73  56  56 S10       30.05S
PAMPA          SUNNY     73  51  45 SW8       30.02R
PERRYTON       MOCLDY    77  49  36 SW7       29.97R
$$

SOUTHERN PANHANDLE/SOUTH PLAINS/ROLLING PLAINS

CITY           SKY/WX    TMP DP  RH WIND       PRES   REMARKS
LUBBOCK        CLEAR     76  56  49 SW13      30.03S
SNYDER         CLEAR     77  61  58 S9        30.01S
CHILDRESS      CLEAR     74  62  66 S8        29.95S
SEMINOLE       SUNNY     75  59  57 S8        30.06S
$$

PERMIAN BASIN

CITY           SKY/WX    TMP DP  RH WIND       PRES   REMARKS
MIDLAND        CLEAR     79  62  56 S12       30.02F
ODESSA         CLEAR     79  62  56 S13       30.03F
WINK           CLEAR     77  62  59 SE7       30.00S
$$

FAR WEST/SOUTHWEST MOUNTAINS/TRANS PECOS

CITY           SKY/WX    TMP DP  RH WIND       PRES   REMARKS
ALPINE         SUNNY     75  57  54 S9        30.17S
DRYDEN           N/A     80  63  55 E5        29.99S
EL PASO        PTCLDY    80  41  24 SE3       30.02F
FORT STOCKTON  CLEAR     76  61  59 S12       30.02S
GUADALUPE PASS CLEAR     73  52  47 S7        30.19S
MARFA          CLEAR     61  55  82 N3        30.18S
PECOS          SUNNY     73  59  61 E8        29.98S
$$

DALLAS/FORT WORTH METROPLEX

CITY           SKY/WX    TMP DP  RH WIND       PRES   REMARKS
DFW AIRPORT    CLEAR     81  70  69 S14       29.95R
FTW MEACHAM    CLEAR     81  70  69 S10       29.95R
DAL-EXECUTIVE  CLEAR     79  70  74 S6        29.96R
GRAND PRAIRIE  CLEAR     79  69  69 S7        29.97R
ADDISON        CLEAR     82  69  63 S6        29.97S
MESQUITE       SUNNY     73  70  90 S5        29.96S
LANCASTER      SUNNY     76  69  78 S5        29.97S
$$

NORTH CENTRAL TEXAS

CITY           SKY/WX    TMP DP  RH WIND       PRES   REMARKS
SHRMAN/DENISON SUNNY     76  69  79 S7        29.96S
GAINESVILLE    CLEAR     75  70  83 CALM      29.97S
BRIDGEPORT     SUNNY     80  66  63 S10       29.96R
DENTON         CLEAR     76  70  82 S5        29.95R
WAXAHACHIE     SUNNY     75  68  78 S6        29.98S
GRANBURY       SUNNY     81  69  67 SE7       29.97S
$$

WESTERN NORTH TEXAS

CITY           SKY/WX    TMP DP  RH WIND       PRES   REMARKS
WICHITA FALLS  CLEAR     77  66  68 S10       29.92R
VERNON         SUNNY     77  63  61 S5        29.93S
BRECKENRIDGE   SUNNY     80  65  59 S9        29.95S
COMANCHE       CLEAR     78  67  69 S13G18    29.98S
$$

CENTRAL AND SOUTH CENTRAL TEXAS

CITY           SKY/WX    TMP DP  RH WIND       PRES   REMARKS
AUSTIN/BERGSTM PTCLDY    75  73  93 S3        29.99S
WACO           CLEAR     78  71  79 S10       29.98R
HILLSBORO      SUNNY     76  69  79 SE6       29.98S
TEMPLE         CLEAR     75  66  73 S9        29.99S
KILLEEN-GRAY   CLEAR     75  72  88 S7        29.99S
FORT HOOD      CLEAR     79  72  79 S7        29.99S
GEORGETOWN     CLEAR     79  73  83 S6        30.01R
LAGO VISTA     FAIR      77  72  84 S3        30.02S
SAN MARCOS     CLEAR     73  68  83 E5        30.01S
NEW BRAUNFELS  CLEAR     74  73  97 CALM      29.98S
RANDOLPH AFB   CLEAR     74  71  88 S5        30.00S
SAN ANTONIO    CLEAR     78  73  84 S9        30.00S
STINSON        CLEAR     76  72  87 SE3       29.97F
PLEASANTON     NOT AVBL
LA GRANGE      CLOUDY    78  77  96 CALM      29.98R
GIDDINGS       SUNNY     76  74  92 CALM      30.03S
$$

EAST TEXAS

CITY           SKY/WX    TMP DP  RH WIND       PRES   REMARKS
PARIS          CLEAR     73  66  78 S5        29.97R
CLARKSVILLE    MOSUNNY   75  73  94 CALM      29.97R
TYLER          CLEAR     77  72  84 S7        29.98S
LONGVIEW       CLEAR     76  72  87 SW7       29.98R
PALESTINE      NOT AVBL
NACOGDOCHES    CLEAR     73  73 100 CALM      30.00S
$$

TEXAS HILL COUNTRY AND EDWARDS PLATEAU

CITY           SKY/WX    TMP DP  RH WIND       PRES   REMARKS
LLANO          SUNNY     73  68  83 CALM      30.03S
HORSESHOE BAY  FAIR      76  67  73 S3        30.00F
KERRVILLE      CLEAR     72  69  89 CALM      30.03S
FREDERICKSBRG  CLEAR     73  67  80 CALM      30.02F
ROCKSPRINGS    SUNNY     73  68  83 SE7       30.06S
HONDO          CLEAR     75  71  87 E6        30.01S
UVALDE         SUNNY     75  72  88 E6        29.98S
DEL RIO        CLEAR     80  71  74 E7        29.95F
$$

SOUTHEAST TEXAS

CITY           SKY/WX    TMP DP  RH WIND       PRES   REMARKS
COLLEGE STN    PTCLDY    76  74  93 CALM      30.00R
CALDWELL       SUNNY     75  75 100 S6        30.02S
CROCKETT       SUNNY     77  75  94 S3        30.02S
BRENHAM        CLEAR     77  74  91 S3        30.00S
HUNTSVILLE     CLEAR     78  74  87 S6        30.00S
CONROE         CLEAR     75  74  96 S3        30.01R
HOUSTON BUSH   PTCLDY    79  75  87 SW3       30.00R
HOUSTON HOBBY  CLEAR     78  75  90 CALM      30.00R
PERLAND        CLEAR     77  74  90 CALM      30.01R
WHARTON        SUNNY     75  73  96 S3        29.99F
$$

THE UPPER TEXAS COAST

CITY           SKY/WX    TMP DP  RH WIND       PRES   REMARKS
ORANGE         SUNNY     79  79 100 CALM      30.01S
PORT ARTHUR    CLEAR     77  75  93 CALM      29.99S
GALVESTON      CLEAR     82  75  79 SW7       30.01R
ANGLETON       PTCLDY    75  74  96 CALM      29.99S
BAY CITY       SUNNY     78  78 100 CALM      29.99R
$$

TEXAS COASTAL BEND, RIO GRANDE PLAINS DEEP SOUTH TEXAS

CITY           SKY/WX    TMP DP  RH WIND       PRES   REMARKS
VICTORIA       CLEAR     79  77  94 S3        29.98S FOG
BEEVILLE       FAIR      77  76  98 S8        29.97S
ROCKPORT       CLEAR     81  76  84 S8        29.96S
PORT ARANSAS   SUNNY     80  77  90 S8        29.97R
PORT LAVACA    SUNNY     78  76  92 CALM      29.98R
CORPUS CHRISTI PTCLDY    78  76  93 S7        29.96S
KINGSVILLE NAS CLEAR     78  76  93 S7        29.96S
COTULLA        CLEAR     77  70  79 SE8       29.95S
LAREDO         CLEAR     80  69  69 SE13      29.96S
BROWNSVILLE    CLEAR     79  76  90 S7        29.97S
PORT ISABEL    CLEAR     81  76  84 S8        29.96F
HEBBRONVILLE   SUNNY     77  71  80 S7        29.98S
MCALLEN        PTCLDY    80  76  87 S9        29.96F
WESLACO        PTCLDY    80  74  82 S8        29.96S
FALFURRIAS     SUNNY     64  64 100 S5        29.96S
EDINBURG       CLOUDY    81  75  80 SE3       29.97R
$$



USA.gov is the U.S. government's official web portal to all federal, state and local government web resources and services.